[[[{"header":{"parameterUnit":"kt","parameterCategory":2,"dx":1,"dy":1,"la1":30.253999710083008,"la2":30.299108505249023,"lo1":-89.0895004272461,"lo2":-89.04439544677734,"nx":28,"ny":28,"refTime":"2022-09-20T09:00:00:Z","depth":"0","parameterNumber":2,"parameterNumberName":"U-component_of_CURRENTS"},"data":[0.0943,0.0959,0.0944,0.0908,0.0903,0.0834,0.0773,0.0701,0.0596,0.0366,0.0197,0.01,0.0118,0.0348,0.0583,0.0715,0.0746,0.0965,0.0838,0.0784,0.0738,0.0695,0.0801,0.1138,0.1139,0.0799,0.08,0.08,0.0919,0.093,0.1001,0.1011,0.0979,0.0994,0.0926,0.0864,0.0697,0.053,0.0364,0.0163,0.0133,0.0125,0.012,0.0337,0.0212,0.0488,0.0413,0.0222,0.003,0.0116,0.0312,0.0312,0.0312,0.0312,0.0311,0.0311,0.0859,0.0906,0.0966,0.1006,0.1039,0.0993,0.0985,0.092,0.0782,0.0545,0.0455,0.027,0.0156,0.0006,0.0004,0.0041,-0.0123,-0.0054,0.0067,0.0014,-0.0044,-0.0175,-0.014,-0.014,-0.0141,-0.0141,-0.0141,0,0.0773,0.0801,0.091,0.0964,0.1015,0.1064,0.1074,0.0995,0.0876,0.072,0.0507,0.0362,0.0201,0.0027,-0.0079,-0.0211,-0.0322,-0.0389,-0.0235,-0.0137,-0.0077,-0.0269,-0.0559,-0.053,-0.0533,-0.0535,-0.0536,-0.0537,0.0697,0.0737,0.0899,0.0949,0.1039,0.111,0.1113,0.1076,0.0959,0.073,0.0605,0.0411,0.022,-0.0011,-0.0187,-0.0374,-0.0401,-0.0448,-0.052,-0.0291,-0.0206,-0.0227,-0.0361,-0.0564,-0.056,-0.0557,-0.0555,0,0.0688,0.0765,0.0877,0.1027,0.1062,0.1116,0.1144,0.1064,0.0935,0.0707,0.0621,0.035,0.0175,-0.0055,-0.0346,-0.0433,-0.0556,-0.0638,-0.0564,-0.0604,-0.0393,-0.0272,-0.0181,-0.0319,-0.0622,-0.0618,-0.0615,0,0.0763,0.0827,0.098,0.1011,0.11,0.1118,0.1089,0.1055,0.087,0.069,0.0461,0.026,-0.0026,-0.0204,-0.0386,-0.0514,-0.0605,-0.068,-0.0736,-0.0737,-0.0722,-0.059,-0.0469,-0.0905,-0.0905,-0.0904,-0.0904,0,0.0827,0.09,0.0988,0.0999,0.1053,0.1105,0.112,0.0942,0.0874,0.0602,0.0445,0.0147,-0.004,-0.0206,-0.0443,-0.0483,-0.0665,-0.0792,-0.075,-0.0742,-0.0742,-0.0729,-0.0575,-0.0903,-0.0903,-0.0902,-0.0902,0,0.0882,0.0919,0.0988,0.1053,0.1031,0.1054,0.097,0.0966,0.0719,0.0605,0.0335,0.0073,-0.0163,-0.0232,-0.0496,-0.0455,-0.0578,-0.0723,-0.0732,-0.0562,-0.0654,-0.0626,-0.0686,-0.0526,-0.0856,-0.0855,-0.0855,0,0.0966,0.0969,0.0928,0.0968,0.0936,0.0885,0.0892,0.0807,0.0665,0.0504,0.0234,-0.0021,-0.0124,-0.0315,-0.0397,-0.0649,-0.0696,-0.0656,-0.0808,-0.081,-0.0584,-0.0643,-0.063,-0.0682,-0.0846,-0.0847,-0.0847,0,0.0918,0.0886,0.0859,0.0884,0.0766,0.0747,0.0747,0.0668,0.0607,0.045,0.0351,0.0006,-0.0186,-0.0312,-0.0539,-0.0617,-0.0688,-0.0652,-0.0657,-0.0598,-0.0817,-0.0653,-0.0644,-0.0761,-0.0762,-0.0762,-0.084,0,0.0881,0.0881,0.0844,0.0739,0.0726,0.0695,0.0638,0.0585,0.0535,0.0439,0.0205,-0.0064,-0.0296,-0.0432,-0.0526,-0.0692,-0.0688,-0.0751,-0.0655,-0.0745,-0.078,-0.0785,-0.0723,-0.0723,-0.0723,-0.0723,0,0,0.0845,0.0808,0.068,0.0629,0.0655,0.0564,0.0572,0.0504,0.0404,0.035,0.0322,-0.0094,-0.024,-0.0491,-0.0576,-0.0679,-0.0692,-0.0563,-0.074,-0.0742,-0.0744,-0.0777,-0.0782,-0.0723,-0.0723,-0.0723,-0.0723,0,0.0741,0.0694,0.0662,0.0625,0.06,0.0539,0.0553,0.0452,0.0411,0.0331,0.0159,-0.0057,-0.0217,-0.0408,-0.0506,-0.0666,-0.0638,-0.074,-0.0654,-0.074,-0.0742,-0.0744,-0.0776,-0.0781,-0.0724,-0.0724,-0.0724,0,0.0648,0.0607,0.0621,0.0579,0.0541,0.0513,0.0478,0.0443,0.0459,0.0299,0.0214,0.0013,-0.0162,-0.0346,-0.0416,-0.0379,-0.0557,-0.0539,-0.0544,-0.0452,-0.0535,-0.054,-0.0545,-0.0463,-0.0461,-0.046,0,0,0.0556,0.0514,0.0517,0.0573,0.0538,0.0504,0.05,0.0458,0.0357,0.0287,0.02,0.0052,-0.0112,-0.0164,-0.0319,-0.0427,-0.0423,-0.0498,-0.0511,-0.052,-0.0435,-0.052,-0.0527,-0.0453,-0.0453,-0.0453,0,0,0.0524,0.0479,0.052,0.0538,0.0547,0.0469,0.0449,0.0441,0.0285,0.025,0.0165,0.0132,-0.0026,-0.0081,0.0013,-0.0282,-0.0247,-0.0266,-0.02,-0.0217,-0.0229,-0.009,-0.0,0,0,0,0,0,0.049,0.0494,0.0536,0.0554,0.0519,0.0485,0.0467,0.0417,0.0406,0.0351,0.0216,0.0224,-0.011,-0.0028,-0.0049,-0.0105,-0.0368,-0.0383,-0.0397,-0.0345,-0.0362,-0.0376,0,0,0,0,0,0,0.0497,0.0508,0.0538,0.0483,0.0483,0.0479,0.0427,0.0402,0.0407,0.0392,0.0237,0.0218,0.0124,-0.0017,-0.0036,-0.0089,0.0006,-0.0374,-0.0387,-0.0398,-0.0351,-0.0365,-0.0377,0,0,0,0,0,0.0503,0.0513,0.0483,0.0477,0.0476,0.0449,0.0422,0.0402,0.0332,0.0277,0.025,0.0321,0.0125,0.0104,-0.0029,-0.0081,0.0019,0.0012,-0.0382,-0.0392,-0.0401,-0.0358,0,0,0,0,0,0,0.0508,0.038,0.0479,0.0478,0.0499,0.044,0.0424,0.0403,0.0207,0.0195,0.0358,0.0349,0.0126,0.0109,0.0094,-0.0077,0.003,0.0023,0.0018,-0.039,-0.0398,-0.0405,0,0,0,0,0,0,0.0382,0.0377,0.0475,0.0504,0.0502,0.0434,0.0421,0.0351,0.0205,0.0282,0.0279,0.0358,0.0208,0.0113,0.01,-0.0015,0.0038,0.0031,0.0027,0.0024,-0.0396,-0.0403,0,0,0,0,0,0,0.0379,0.0374,0.0499,0.0498,0.0495,0.0426,0.0365,0.0327,0.0253,0.0284,0.0254,0.0255,0.0218,0.0199,0.0105,-0.0004,-0.0012,0.0038,0.0033,0.003,0.0028,0,0,0,0,0,0,0,0.0376,0.0424,0.0562,0.0492,0.0489,0.0484,0.0476,0.0468,0.0253,0.0253,0.0254,0.0254,0.0077,0.007,0.0062,0.0004,0,0,0.0039,0.0035,0,0,0,0,0,0,0,0,0.0424,0.0424,0.0563,0.0567,0.0571,0.0483,0.0476,0.047,0.0253,0.0253,0.0254,0.0254,0.0075,0.0069,0.0063,0,0,0,0,0,0,0,0,0,0,0,0,0,0,0,0.0563,0.0567,0,0.0482,0.0476,0.0471,0.0253,0.0253,0.0254,0.0254,0.0073,0.0068,0.0063,0,0,0,0,0,0,0,0,0,0,0,0,0,0,0,0,0,0,0,0,0,0,0,0,0,0,0,0,0,0,0,0,0,0,0,0,0,0,0,0,0,0,0,0,0,0,0,0,0,0,0,0,0,0,0,0,0,0,0,0,0,0,0,0,0,0,0,0,0]}],[{"header":{"parameterUnit":"kt","parameterCategory":2,"dx":1,"dy":1,"la1":30.253999710083008,"la2":30.299108505249023,"lo1":-89.0895004272461,"lo2":-89.04439544677734,"nx":28,"ny":28,"refTime":"2022-09-20T09:00:00:Z","depth":"0","parameterNumber":3,"parameterNumberName":"V-component_of_CURRENTS"},"data":[-0.4334,-0.4289,-0.4233,-0.4069,-0.4013,-0.3865,-0.3769,-0.3647,-0.3566,-0.3377,-0.3287,-0.3305,-0.3065,-0.2618,-0.205,-0.1894,-0.1209,-0.1307,-0.0973,-0.174,-0.1796,-0.1848,-0.1702,-0.1316,-0.1315,0.0244,0.0256,0.0265,-0.4336,-0.4281,-0.4283,-0.4234,-0.4161,-0.4163,-0.4063,-0.3959,-0.3805,-0.3697,-0.3611,-0.3514,-0.3289,-0.3032,-0.275,-0.2512,-0.2137,-0.235,-0.196,-0.1698,-0.2712,-0.2592,-0.2389,-0.2389,-0.239,-0.239,-0.239,-0.2391,-0.4276,-0.4293,-0.434,-0.4318,-0.4311,-0.4233,-0.416,-0.4114,-0.3994,-0.3775,-0.3834,-0.3702,-0.3603,-0.3524,-0.3376,-0.3035,-0.3059,-0.3028,-0.2971,-0.2757,-0.2321,-0.3392,-0.3399,-0.34,-0.3402,-0.3403,-0.3404,0,-0.4222,-0.4264,-0.4327,-0.4347,-0.434,-0.4324,-0.4287,-0.4238,-0.4111,-0.4018,-0.3895,-0.3816,-0.3727,-0.3628,-0.3587,-0.359,-0.3203,-0.3568,-0.3269,-0.2972,-0.2665,-0.2303,-0.3406,-0.3488,-0.349,-0.3492,-0.3493,-0.3494,-0.4175,-0.4217,-0.4322,-0.4331,-0.4363,-0.4369,-0.4331,-0.4263,-0.4203,-0.4041,-0.3957,-0.3834,-0.3731,-0.3692,-0.3635,-0.366,-0.338,-0.361,-0.3589,-0.3278,-0.3156,-0.2902,-0.2604,-0.3516,-0.3513,-0.3511,-0.3509,0,-0.4193,-0.4229,-0.4285,-0.4351,-0.4349,-0.4354,-0.4283,-0.4243,-0.4165,-0.4023,-0.3967,-0.3821,-0.3756,-0.365,-0.3652,-0.3665,-0.3458,-0.3706,-0.3579,-0.3533,-0.3273,-0.3182,-0.2918,-0.2569,-0.3792,-0.3792,-0.3791,0,-0.4249,-0.4258,-0.4338,-0.4336,-0.4358,-0.4279,-0.4261,-0.4229,-0.4104,-0.3994,-0.3911,-0.3784,-0.3657,-0.3604,-0.3638,-0.3638,-0.3673,-0.3658,-0.3628,-0.3514,-0.3496,-0.3233,-0.3131,-0.3723,-0.3721,-0.372,-0.3719,0,-0.4311,-0.428,-0.4318,-0.427,-0.4234,-0.424,-0.4225,-0.414,-0.4111,-0.3995,-0.3897,-0.3741,-0.3602,-0.3655,-0.3582,-0.3577,-0.3612,-0.3578,-0.3588,-0.3583,-0.3493,-0.3473,-0.3302,-0.3718,-0.3717,-0.3717,-0.3717,0,-0.4294,-0.4323,-0.4315,-0.4254,-0.4206,-0.4194,-0.4133,-0.4145,-0.404,-0.3976,-0.3807,-0.3649,-0.3538,-0.3496,-0.3486,-0.344,-0.3499,-0.3471,-0.3474,-0.34,-0.3295,-0.3311,-0.3397,-0.3093,-0.3471,-0.3469,-0.3467,0,-0.4364,-0.4332,-0.4254,-0.4212,-0.4152,-0.4057,-0.4076,-0.4031,-0.3992,-0.3928,-0.3731,-0.3579,-0.3505,-0.3358,-0.3375,-0.3273,-0.3354,-0.3271,-0.3333,-0.3336,-0.3271,-0.337,-0.325,-0.3367,-0.3439,-0.3441,-0.3444,0,-0.4329,-0.4229,-0.4193,-0.4173,-0.402,-0.3976,-0.3992,-0.3968,-0.3963,-0.3855,-0.3811,-0.3579,-0.3448,-0.3342,-0.3176,-0.319,-0.3303,-0.3179,-0.3179,-0.3249,-0.3413,-0.3339,-0.3351,-0.3265,-0.3268,-0.327,-0.3421,0,-0.4216,-0.4219,-0.4167,-0.408,-0.4035,-0.3958,-0.3907,-0.3902,-0.3878,-0.3841,-0.3686,-0.3457,-0.3279,-0.3218,-0.3113,-0.3097,-0.3103,-0.3045,-0.3016,-0.308,-0.3134,-0.3152,-0.2921,-0.2919,-0.2918,-0.2917,0,0,-0.419,-0.4194,-0.4095,-0.4031,-0.3989,-0.391,-0.3879,-0.3868,-0.3762,-0.3737,-0.3683,-0.3376,-0.323,-0.3042,-0.3041,-0.2955,-0.299,-0.2959,-0.3034,-0.3047,-0.3059,-0.3114,-0.3133,-0.2915,-0.2914,-0.2914,-0.2914,0,-0.4095,-0.4094,-0.4089,-0.4019,-0.3937,-0.3894,-0.3893,-0.3794,-0.3786,-0.3698,-0.3553,-0.3384,-0.3196,-0.3055,-0.296,-0.2939,-0.2924,-0.2914,-0.2993,-0.3021,-0.3036,-0.3049,-0.3106,-0.3124,-0.2911,-0.2911,-0.2911,0,-0.401,-0.3987,-0.4,-0.3991,-0.3922,-0.388,-0.384,-0.3769,-0.3793,-0.3573,-0.3516,-0.3341,-0.3158,-0.3009,-0.2941,-0.292,-0.2881,-0.2825,-0.2831,-0.2874,-0.2902,-0.2918,-0.2933,-0.2752,-0.2751,-0.2751,0,0,-0.3938,-0.3936,-0.3903,-0.3972,-0.392,-0.3866,-0.3853,-0.3797,-0.3668,-0.361,-0.3491,-0.3333,-0.3181,-0.3082,-0.294,-0.2818,-0.2838,-0.2808,-0.2816,-0.2822,-0.2867,-0.2898,-0.2913,-0.275,-0.275,-0.275,0,0,-0.3879,-0.3824,-0.3854,-0.3917,-0.389,-0.3793,-0.3767,-0.3766,-0.3628,-0.3565,-0.3412,-0.3352,-0.3199,-0.3107,-0.311,-0.2943,-0.2913,-0.2906,-0.2983,-0.299,-0.2997,-0.3082,-0.3004,0,0,0,0,0,-0.3777,-0.3834,-0.3865,-0.3877,-0.3869,-0.3815,-0.3804,-0.3737,-0.372,-0.3706,-0.3526,-0.345,-0.3068,-0.3065,-0.3019,-0.3013,-0.2736,-0.2739,-0.2741,-0.2811,-0.2821,-0.2829,0,0,0,0,0,0,-0.3781,-0.3793,-0.3862,-0.3785,-0.3784,-0.3812,-0.3743,-0.3722,-0.3717,-0.3703,-0.3487,-0.3444,-0.3295,-0.308,-0.3041,-0.3038,-0.3017,-0.2737,-0.2739,-0.2741,-0.2815,-0.2823,-0.2829,0,0,0,0,0,-0.3783,-0.3793,-0.3816,-0.378,-0.378,-0.3714,-0.3739,-0.3722,-0.3697,-0.3505,-0.3463,-0.3654,-0.3301,-0.3253,-0.3056,-0.306,-0.3043,-0.3029,-0.2738,-0.274,-0.2741,-0.2819,0,0,0,0,0,0,-0.3785,-0.3736,-0.3812,-0.3808,-0.3766,-0.3707,-0.3699,-0.3722,-0.3491,-0.3461,-0.3658,-0.3649,-0.3304,-0.3267,-0.3231,-0.3076,-0.3065,-0.305,-0.3041,-0.274,-0.2741,-0.2742,0,0,0,0,0,0,-0.3732,-0.3733,-0.3809,-0.3794,-0.3786,-0.3702,-0.3695,-0.3556,-0.3482,-0.3649,-0.3641,-0.3656,-0.3309,-0.3276,-0.3248,-0.3036,-0.3081,-0.3068,-0.3058,-0.3052,-0.2741,-0.2742,0,0,0,0,0,0,-0.373,-0.3731,-0.3794,-0.3788,-0.378,-0.3709,-0.3565,-0.3523,-0.3606,-0.3654,-0.3599,-0.3597,-0.3317,-0.3289,-0.3261,-0.3062,-0.3043,-0.3081,-0.3071,-0.3065,-0.306,0,0,0,0,0,0,0,-0.3729,-0.3754,-0.3861,-0.3782,-0.3775,-0.377,-0.3766,-0.3763,-0.3605,-0.3602,-0.36,-0.3598,-0.316,-0.3145,-0.313,-0.3083,0,0,-0.3082,-0.3076,0,0,0,0,0,0,0,0,-0.3751,-0.3753,-0.3861,-0.3861,-0.3862,-0.3769,-0.3767,-0.3764,-0.3605,-0.3603,-0.3601,-0.3599,-0.3156,-0.3144,-0.3132,0,0,0,0,0,0,0,0,0,0,0,0,0,0,0,-0.3861,-0.3861,0,-0.3769,-0.3767,-0.3764,-0.3604,-0.3603,-0.3601,-0.3599,-0.3153,-0.3143,-0.3133,0,0,0,0,0,0,0,0,0,0,0,0,0,0,0,0,0,0,0,0,0,0,0,0,0,0,0,0,0,0,0,0,0,0,0,0,0,0,0,0,0,0,0,0,0,0,0,0,0,0,0,0,0,0,0,0,0,0,0,0,0,0,0,0,0,0,0,0,0]}]],[[{"header":{"parameterUnit":"kt","parameterCategory":2,"dx":1,"dy":1,"la1":30.253999710083008,"la2":30.299108505249023,"lo1":-89.0895004272461,"lo2":-89.04439544677734,"nx":28,"ny":28,"refTime":"2022-09-20T09:00:00:Z","depth":"2","parameterNumber":2,"parameterNumberName":"U-component_of_CURRENTS"},"data":[-0.2933,-0.2774,-0.2739,-0.2546,-0.2503,-0.2348,-0.2262,-0.2118,-0.2032,-0.1881,-0.1853,-0.1742,-0.1615,-0.1274,-0.0871,-0.0648,-0.0752,-0.0488,-0.0922,-0.1159,-0.1214,-0.1206,-0.1351,0,0,0,0,0,-0.3062,-0.2984,-0.2925,-0.2849,-0.2789,-0.284,-0.2735,-0.2622,-0.2413,-0.2304,-0.2113,-0.1911,-0.1563,-0.1391,-0.1039,-0.0804,-0.081,-0.0657,-0.0796,-0.0852,-0.0903,-0.0962,-0.0347,-0.0346,-0.0345,-0.0344,0,0,-0.3291,-0.324,-0.3191,-0.3115,-0.3096,-0.3038,-0.2944,-0.2892,-0.279,-0.2626,-0.2553,-0.2341,-0.2098,-0.1697,-0.136,-0.1147,-0.1314,-0.1254,-0.1283,-0.1317,-0.1384,-0.1375,-0.0889,-0.0891,-0.0893,-0.0895,-0.0897,0,-0.345,-0.3454,-0.3419,-0.3374,-0.3316,-0.3299,-0.3245,-0.3206,-0.3241,-0.3165,-0.2936,-0.2756,-0.2386,-0.2074,-0.179,-0.1581,-0.1814,-0.1582,-0.2023,-0.1894,-0.189,-0.1884,-0.194,-0.1496,-0.1502,-0.1507,-0.151,-0.1513,-0.3604,-0.3573,-0.3587,-0.3553,-0.3548,-0.3523,-0.3482,-0.3562,-0.3517,-0.345,-0.334,-0.313,-0.2892,-0.2488,-0.2336,-0.2064,-0.2212,-0.1731,-0.192,-0.2387,-0.2371,-0.2412,-0.2449,-0.1579,-0.157,-0.1564,-0.1558,0,-0.3671,-0.3705,-0.3674,-0.3705,-0.3698,-0.367,-0.3687,-0.3651,-0.3713,-0.3613,-0.3589,-0.3506,-0.3255,-0.317,-0.2898,-0.2812,-0.2583,-0.2433,-0.2274,-0.2204,-0.2473,-0.2503,-0.2084,-0.2076,-0.2069,-0.2063,-0.2058,0,-0.3808,-0.3762,-0.3813,-0.3791,-0.3752,-0.3818,-0.3781,-0.3829,-0.383,-0.3761,-0.3808,-0.3691,-0.3659,-0.3453,-0.3328,-0.3002,-0.3026,-0.2889,-0.2828,-0.2721,-0.2701,-0.3269,-0.3304,-0.3006,-0.301,-0.3013,-0.3016,0,-0.3903,-0.3907,-0.3875,-0.3876,-0.3929,-0.3915,-0.394,-0.3971,-0.398,-0.3954,-0.3927,-0.3836,-0.3758,-0.3611,-0.3448,-0.3527,-0.3152,-0.3267,-0.2969,-0.2956,-0.281,-0.2792,-0.302,-0.302,-0.3021,-0.3022,-0.3023,0,-0.4014,-0.4034,-0.399,-0.4021,-0.4024,-0.4007,-0.4032,-0.4049,-0.4044,-0.4068,-0.4022,-0.4027,-0.3901,-0.3956,-0.3709,-0.3791,-0.361,-0.355,-0.3533,-0.349,-0.3507,-0.3001,-0.2667,-0.3324,-0.3328,-0.3332,-0.3336,0,-0.4097,-0.4092,-0.4156,-0.4106,-0.4103,-0.4181,-0.4181,-0.4207,-0.4238,-0.4216,-0.4217,-0.4183,-0.4207,-0.4155,-0.4046,-0.3972,-0.3785,-0.3968,-0.3701,-0.3694,-0.3576,-0.3316,-0.3142,-0.2749,-0.3387,-0.3381,-0.3378,0,-0.4184,-0.4257,-0.4241,-0.4247,-0.4308,-0.4329,-0.4317,-0.4352,-0.4344,-0.4367,-0.433,-0.4284,-0.4283,-0.4264,-0.4231,-0.4134,-0.3865,-0.4093,-0.4092,-0.3901,-0.3529,-0.34,-0.3352,-0.3843,-0.3839,-0.3836,-0.3418,0,-0.4278,-0.4305,-0.4294,-0.4374,-0.4392,-0.4382,-0.4469,-0.4477,-0.4514,-0.4556,-0.4507,-0.4527,-0.449,-0.4437,-0.4433,-0.4258,-0.42,-0.4269,-0.4296,-0.4175,-0.4005,-0.3972,-0.4416,-0.442,-0.4423,-0.4426,0,0,-0.4334,-0.441,-0.4524,-0.4535,-0.4548,-0.4644,-0.4631,-0.4667,-0.4732,-0.473,-0.475,-0.472,-0.4694,-0.4586,-0.4523,-0.4523,-0.4417,-0.4447,-0.4254,-0.4234,-0.4216,-0.4048,-0.4013,-0.4431,-0.4433,-0.4434,-0.4435,0,-0.4419,-0.4512,-0.4534,-0.4574,-0.4639,-0.4708,-0.4697,-0.4793,-0.4803,-0.4803,-0.4827,-0.4782,-0.4731,-0.4702,-0.4677,-0.457,-0.4485,-0.4498,-0.4382,-0.4282,-0.4258,-0.4238,-0.4067,-0.4033,-0.4442,-0.4442,-0.4442,0,-0.4505,-0.4613,-0.4645,-0.4774,-0.4814,-0.4831,-0.4916,-0.4918,-0.492,-0.4978,-0.4936,-0.4932,-0.4922,-0.4825,-0.4776,-0.4788,-0.454,-0.4646,-0.4631,-0.4674,-0.4578,-0.4551,-0.4527,-0.4832,-0.4832,-0.4833,0,0,-0.4565,-0.4633,-0.4775,-0.4807,-0.4827,-0.4919,-0.4933,-0.4967,-0.5004,-0.4997,-0.4998,-0.4977,-0.4944,-0.4882,-0.4882,-0.4781,-0.4763,-0.4685,-0.4667,-0.4651,-0.4684,-0.4586,-0.456,-0.4835,-0.4835,-0.4835,0,0,-0.4584,-0.477,-0.4819,-0.4883,-0.4936,-0.5053,-0.5016,-0.5067,-0.506,-0.5032,-0.5055,-0.5044,-0.4954,-0.4959,-0.499,-0.4816,-0.4904,-0.4898,-0.476,-0.4738,-0.472,-0.4761,-0.4984,0,0,0,0,0,-0.475,-0.4763,-0.4808,-0.4836,-0.4997,-0.5056,-0.5068,-0.5095,-0.5105,-0.5072,-0.5081,-0.5056,-0.4977,-0.5006,-0.4998,-0.4858,-0.4861,-0.4856,-0.4852,-0.4658,-0.4635,-0.4615,0,0,0,0,0,0,-0.4763,-0.4802,-0.4807,-0.4939,-0.4973,-0.5058,-0.5104,-0.5112,-0.5105,-0.5101,-0.5069,-0.5058,-0.5063,-0.5009,-0.5001,-0.4866,-0.4986,-0.4859,-0.4855,-0.4852,-0.465,-0.4631,-0.4615,0,0,0,0,0,-0.4772,-0.4804,-0.506,-0.4936,-0.4966,-0.5019,-0.5101,-0.5108,-0.5089,-0.51,-0.509,-0.5097,-0.5066,-0.5054,-0.5004,-0.4868,-0.4991,-0.4988,-0.4857,-0.4853,-0.4851,-0.4641,0,0,0,0,0,0,-0.4779,-0.4804,-0.5065,-0.5074,-0.4907,-0.501,-0.5031,-0.5104,-0.5084,-0.508,-0.513,-0.5128,-0.5069,-0.5059,-0.505,-0.4866,-0.4995,-0.4992,-0.499,-0.4854,-0.4852,-0.485,0,0,0,0,0,0,-0.4787,-0.4812,-0.507,-0.5031,-0.5036,-0.5,-0.5019,-0.5001,-0.5078,-0.5113,-0.5113,-0.5128,-0.5027,-0.5063,-0.5055,-0.503,-0.4998,-0.4995,-0.4993,-0.4992,-0.4852,-0.485,0,0,0,0,0,0,-0.4797,-0.4819,-0.503,-0.5033,-0.5036,-0.5131,-0.4976,-0.5104,-0.5154,-0.5109,-0.5147,-0.5143,-0.5028,-0.5024,-0.506,-0.5038,-0.5032,-0.4998,-0.4996,-0.4995,-0.4994,0,0,0,0,0,0,0,-0.4805,-0.4667,-0.5016,-0.5034,-0.5037,-0.515,-0.5152,-0.5154,-0.5153,-0.515,-0.5147,-0.5145,-0.5012,-0.501,-0.5007,-0.5044,0,0,-0.4998,-0.4997,0,0,0,0,0,0,0,0,-0.4657,-0.4665,-0.5016,-0.5017,-0.5019,-0.515,-0.5152,-0.5154,-0.5152,-0.515,-0.5148,-0.5146,-0.5012,-0.5009,-0.5007,0,0,0,0,0,0,0,0,0,0,0,0,0,0,0,-0.5016,-0.5017,0,-0.515,-0.5152,-0.5153,-0.5152,-0.515,-0.5148,-0.5147,-0.5011,-0.5009,-0.5007,0,0,0,0,0,0,0,0,0,0,0,0,0,0,0,0,0,0,0,0,0,0,0,0,0,0,0,0,0,0,0,0,0,0,0,0,0,0,0,0,0,0,0,0,0,0,0,0,0,0,0,0,0,0,0,0,0,0,0,0,0,0,0,0,0,0,0,0,0]}],[{"header":{"parameterUnit":"kt","parameterCategory":2,"dx":1,"dy":1,"la1":30.253999710083008,"la2":30.299108505249023,"lo1":-89.0895004272461,"lo2":-89.04439544677734,"nx":28,"ny":28,"refTime":"2022-09-20T09:00:00:Z","depth":"2","parameterNumber":3,"parameterNumberName":"V-component_of_CURRENTS"},"data":[0.0257,0.0111,0.0021,0.0008,-0.0034,-0.0055,-0.0068,-0.012,-0.0125,-0.0008,0.0344,0.0383,0.1161,0.1522,0.1691,0.2009,0.177,0.1798,0.1471,0.1962,0.1939,0.2331,0.2523,0,0,0,0,0,0.028,0.0121,0.0044,-0.0043,0.0006,-0.0075,-0.0047,-0.0037,-0.0024,-0.0051,-0.0076,0.0589,0.1008,0.1268,0.1826,0.1824,0.1891,0.165,0.2087,0.2086,0.208,0.2189,0.2124,0.2119,0.2114,0.211,0,0,0.0312,0.0217,0.0105,-0.0008,-0.003,-0.0024,-0.0039,-0.0003,0.0035,0.004,0.0101,0.0308,0.0621,0.1011,0.1044,0.1239,0.1355,0.1671,0.1686,0.1694,0.1773,0.149,0.1604,0.1599,0.1595,0.1591,0.1587,0,0.0355,0.0277,0.0213,0.0096,0.0026,0.0033,0.0017,0.0024,0.0124,0.0136,0.0194,0.0157,0.0318,0.0783,0.0864,0.1047,0.1432,0.1454,0.1078,0.2302,0.2019,0.2136,0.212,0.2246,0.2244,0.2243,0.2242,0.2241,0.0438,0.0358,0.0261,0.0219,0.0171,0.011,0.0117,0.0171,0.0217,0.0275,0.0279,0.0235,0.0255,0.0505,0.0876,0.105,0.1129,0.1428,0.1777,0.1189,0.1302,0.1307,0.1311,0.2222,0.2224,0.2226,0.2228,0,0.0504,0.0465,0.0385,0.0362,0.034,0.0282,0.031,0.033,0.0354,0.035,0.0277,0.0377,0.0486,0.0668,0.106,0.1225,0.147,0.1477,0.1611,0.1737,0.1362,0.1355,0.1309,0.1299,0.1291,0.1284,0.1278,0,0.0637,0.0573,0.0532,0.0482,0.0427,0.0509,0.0472,0.0546,0.058,0.0603,0.0594,0.0607,0.0896,0.1005,0.1197,0.1364,0.1581,0.1623,0.1732,0.2118,0.2117,0.2308,0.2329,0.2154,0.2156,0.2158,0.2159,0,0.0762,0.0723,0.0636,0.0643,0.0715,0.069,0.0739,0.0852,0.0915,0.0857,0.0831,0.0896,0.0896,0.1163,0.1313,0.1382,0.163,0.193,0.1785,0.1755,0.2367,0.2384,0.2162,0.2162,0.2163,0.2163,0.2164,0,0.0896,0.087,0.0762,0.0828,0.0828,0.0814,0.092,0.0988,0.1071,0.1112,0.109,0.1142,0.1105,0.1246,0.151,0.1426,0.1523,0.172,0.1728,0.1757,0.1935,0.2076,0.1913,0.1723,0.1722,0.1721,0.172,0,0.1042,0.0944,0.1007,0.0959,0.094,0.1094,0.1148,0.1257,0.1345,0.1359,0.1475,0.1484,0.1515,0.1389,0.149,0.1726,0.1689,0.1666,0.2151,0.2159,0.1895,0.1655,0.2077,0.189,0.1706,0.1707,0.1708,0,0.1176,0.1178,0.1157,0.1158,0.1253,0.1302,0.1338,0.1461,0.1472,0.1564,0.1554,0.1641,0.1619,0.1702,0.1707,0.1803,0.1655,0.1848,0.1878,0.1647,0.1906,0.1655,0.1637,0.1928,0.1934,0.1938,0.1697,0,0.1344,0.132,0.1274,0.132,0.1376,0.1372,0.1535,0.1578,0.1649,0.1764,0.182,0.1992,0.2084,0.2054,0.2059,0.2027,0.1954,0.2286,0.239,0.2259,0.2151,0.2157,0.2246,0.2257,0.2266,0.2273,0,0,0.1489,0.1478,0.1581,0.1555,0.16,0.1758,0.174,0.1841,0.2016,0.2059,0.2072,0.2304,0.242,0.2432,0.2274,0.2414,0.2425,0.2192,0.2311,0.2311,0.2315,0.2206,0.2202,0.2289,0.2292,0.2295,0.2298,0,0.1593,0.1631,0.1578,0.165,0.1734,0.1864,0.1838,0.1996,0.2049,0.2136,0.2282,0.2324,0.2466,0.2561,0.263,0.2514,0.2591,0.2442,0.2079,0.2374,0.2363,0.2356,0.2243,0.2232,0.232,0.2319,0.2318,0,0.1739,0.1813,0.181,0.1924,0.2,0.2036,0.217,0.2185,0.2229,0.2444,0.2475,0.2586,0.2791,0.2773,0.2779,0.2814,0.273,0.2743,0.2707,0.2735,0.3059,0.3043,0.3029,0.3202,0.3202,0.3202,0,0,0.1814,0.1808,0.1983,0.1966,0.1987,0.2158,0.2203,0.2272,0.24,0.2431,0.255,0.2677,0.2792,0.2776,0.2958,0.2917,0.3096,0.2822,0.2781,0.2745,0.275,0.3062,0.3047,0.3203,0.3203,0.3203,0,0,0.1868,0.2013,0.2067,0.2052,0.2167,0.2381,0.2349,0.244,0.2533,0.2492,0.2686,0.272,0.2742,0.2881,0.2873,0.2849,0.3063,0.3069,0.2612,0.2565,0.2526,0.248,0.2979,0,0,0,0,0,0.2061,0.2003,0.205,0.207,0.225,0.2372,0.2404,0.2495,0.2498,0.248,0.2605,0.2663,0.2917,0.2915,0.2954,0.2749,0.3211,0.321,0.3208,0.2633,0.2581,0.2536,0,0,0,0,0,0,0.207,0.2094,0.2054,0.2257,0.2299,0.2376,0.2458,0.2487,0.2499,0.2499,0.2649,0.2673,0.2805,0.2903,0.2936,0.2735,0.2968,0.3211,0.3209,0.3208,0.2615,0.2572,0.2536,0,0,0,0,0,0.2078,0.2098,0.2328,0.2262,0.2298,0.2433,0.2454,0.2478,0.2474,0.2675,0.2696,0.2519,0.2805,0.2836,0.2924,0.2713,0.2946,0.2958,0.321,0.3209,0.3208,0.2594,0,0,0,0,0,0,0.2085,0.2159,0.2341,0.236,0.2215,0.2428,0.2452,0.247,0.265,0.2672,0.256,0.2559,0.2808,0.2831,0.2854,0.269,0.2928,0.294,0.2948,0.3209,0.3208,0.3208,0,0,0,0,0,0,0.215,0.2173,0.2351,0.2286,0.2299,0.2422,0.2444,0.2578,0.2649,0.2526,0.2531,0.2557,0.2743,0.2828,0.2846,0.3057,0.2915,0.2926,0.2934,0.2939,0.3208,0.3208,0,0,0,0,0,0,0.2164,0.2185,0.2282,0.2292,0.2304,0.2534,0.2544,0.2704,0.2633,0.2516,0.2623,0.2618,0.2738,0.276,0.284,0.3044,0.3054,0.2915,0.2923,0.2928,0.2932,0,0,0,0,0,0,0,0.2175,0.1982,0.2216,0.2297,0.2307,0.2537,0.2543,0.2549,0.2632,0.2628,0.2624,0.262,0.2849,0.2861,0.2874,0.3033,0,0,0.2914,0.2919,0,0,0,0,0,0,0,0,0.1979,0.1981,0.2216,0.222,0.2223,0.2538,0.2543,0.2548,0.2631,0.2628,0.2625,0.2622,0.2852,0.2862,0.2873,0,0,0,0,0,0,0,0,0,0,0,0,0,0,0,0.2217,0.222,0,0.2539,0.2543,0.2547,0.263,0.2628,0.2625,0.2623,0.2855,0.2864,0.2872,0,0,0,0,0,0,0,0,0,0,0,0,0,0,0,0,0,0,0,0,0,0,0,0,0,0,0,0,0,0,0,0,0,0,0,0,0,0,0,0,0,0,0,0,0,0,0,0,0,0,0,0,0,0,0,0,0,0,0,0,0,0,0,0,0,0,0,0,0]}]],[[{"header":{"parameterUnit":"kt","parameterCategory":2,"dx":1,"dy":1,"la1":30.253999710083008,"la2":30.299108505249023,"lo1":-89.0895004272461,"lo2":-89.04439544677734,"nx":28,"ny":28,"refTime":"2022-09-20T09:00:00:Z","depth":"4","parameterNumber":2,"parameterNumberName":"U-component_of_CURRENTS"},"data":[-0.0997,-0.1027,-0.1087,-0.1026,-0.0988,-0.099,-0.1026,-0.1093,-0.1073,-0.1147,-0.1075,-0.1127,-0.1027,-0.1105,-0.0948,-0.095,-0.1258,-0.099,-0.0987,-0.1596,-0.1637,-0.1674,-0.1707,0,0,0,0,0,-0.1058,-0.1095,-0.11,-0.1123,-0.11,-0.1129,-0.1186,-0.1262,-0.1377,-0.1226,-0.1462,-0.1201,-0.1097,-0.1052,-0.0982,-0.1078,-0.135,-0.0996,-0.1514,-0.1622,-0.1667,-0.1684,0,0,0,0,0,0,-0.1162,-0.1181,-0.123,-0.1255,-0.1247,-0.1237,-0.1306,-0.1326,-0.1478,-0.1695,-0.1482,-0.1435,-0.1426,-0.1328,-0.1302,-0.1322,-0.1321,-0.1433,-0.1485,-0.153,-0.1505,-0.1381,-0.0863,0,0,0,0,0,-0.1226,-0.1295,-0.1341,-0.1346,-0.1401,-0.1431,-0.154,-0.163,-0.1841,-0.2052,-0.1916,-0.1863,-0.161,-0.1578,-0.1605,-0.1606,-0.2094,-0.1925,-0.1951,-0.2101,-0.2046,-0.2009,-0.2042,-0.1841,-0.1846,-0.185,-0.1852,0,-0.1316,-0.1339,-0.1459,-0.146,-0.1569,-0.1687,-0.1726,-0.2063,-0.2104,-0.2251,-0.2242,-0.2195,-0.2204,-0.1927,-0.2041,-0.2027,-0.2045,-0.2043,-0.2203,-0.2121,-0.2068,-0.2091,-0.2111,-0.1889,-0.1886,-0.1883,-0.188,0,-0.1363,-0.1444,-0.1502,-0.1677,-0.1729,-0.1808,-0.2019,-0.2088,-0.2385,-0.2439,-0.2548,-0.271,-0.2546,-0.2684,-0.2614,-0.2616,-0.2502,-0.2394,-0.2774,-0.2723,-0.2174,-0.2179,-0.195,-0.1936,-0.1925,-0.1915,-0.1907,0,-0.145,-0.1501,-0.1649,-0.1688,-0.1776,-0.1892,-0.1992,-0.2213,-0.2465,-0.2483,-0.2755,-0.2785,-0.3021,-0.2983,-0.3003,-0.279,-0.2954,-0.2656,-0.2575,-0.3011,-0.3012,-0.3046,-0.3052,-0.3011,-0.3013,-0.3015,-0.3016,0,-0.1484,-0.1621,-0.1631,-0.1683,-0.1843,-0.1959,-0.2065,-0.2235,-0.2361,-0.2617,-0.2738,-0.2927,-0.3026,-0.3081,-0.3051,-0.3111,-0.2987,-0.3024,-0.2676,-0.2649,-0.3058,-0.3062,-0.3018,-0.3018,-0.3019,-0.3019,-0.302,0,-0.1595,-0.164,-0.1676,-0.1802,-0.1821,-0.194,-0.2097,-0.2213,-0.2456,-0.261,-0.2825,-0.2918,-0.3069,-0.3139,-0.3163,-0.3206,-0.3155,-0.3107,-0.3097,-0.2841,-0.2746,-0.2896,-0.2912,-0.2912,-0.2913,-0.2914,-0.2914,0,-0.1589,-0.1666,-0.172,-0.1818,-0.1837,-0.2003,-0.2115,-0.2282,-0.2406,-0.2591,-0.2772,-0.29,-0.3009,-0.3105,-0.3162,-0.3104,-0.3108,-0.3157,-0.3088,-0.3085,-0.2724,-0.2667,-0.3149,-0.2923,-0.2922,-0.2921,-0.2921,0,-0.1583,-0.1713,-0.1738,-0.1788,-0.1911,-0.1968,-0.2114,-0.2253,-0.2368,-0.2617,-0.274,-0.2885,-0.2993,-0.3066,-0.3138,-0.317,-0.3102,-0.3186,-0.3188,-0.302,-0.3047,-0.2715,-0.2676,-0.3142,-0.3144,-0.3145,-0.2927,0,-0.1652,-0.1719,-0.1733,-0.1847,-0.1889,-0.1975,-0.2109,-0.2278,-0.241,-0.2509,-0.2691,-0.2806,-0.2977,-0.2993,-0.3025,-0.3105,-0.3082,-0.3104,-0.3109,-0.3164,-0.306,-0.3055,-0.3138,-0.3139,-0.314,-0.3141,0,0,-0.1632,-0.1692,-0.1758,-0.1822,-0.1863,-0.2025,-0.2062,-0.2188,-0.2407,-0.2474,-0.2551,-0.2792,-0.2844,-0.2955,-0.2998,-0.3026,-0.3021,-0.3111,-0.3165,-0.3167,-0.3169,-0.3071,-0.3065,-0.3143,-0.3144,-0.3144,-0.3145,0,-0.165,-0.1701,-0.1727,-0.1817,-0.1951,-0.2014,-0.2066,-0.2219,-0.2314,-0.2481,-0.2537,-0.2648,-0.2833,-0.2886,-0.2935,-0.3031,-0.3024,-0.3096,-0.3178,-0.3173,-0.3173,-0.3174,-0.3077,-0.307,-0.3148,-0.3147,-0.3147,0,-0.1662,-0.1729,-0.1756,-0.1869,-0.193,-0.1999,-0.2073,-0.2184,-0.2282,-0.2373,-0.2535,-0.2603,-0.271,-0.2823,-0.2898,-0.2927,-0.3041,-0.3058,-0.3057,-0.3103,-0.3099,-0.3102,-0.3104,-0.3056,-0.3055,-0.3053,0,0,-0.1675,-0.1718,-0.1832,-0.1881,-0.1908,-0.2028,-0.2085,-0.2188,-0.2303,-0.2364,-0.2482,-0.2612,-0.2681,-0.2779,-0.285,-0.2975,-0.2968,-0.3036,-0.3041,-0.3043,-0.3089,-0.3088,-0.3092,-0.3048,-0.3048,-0.3048,0,0,-0.169,-0.1795,-0.1847,-0.1888,-0.1998,-0.2098,-0.2127,-0.2222,-0.2345,-0.2381,-0.2476,-0.2511,-0.2637,-0.273,-0.2656,-0.2872,-0.2871,-0.2887,-0.278,-0.2787,-0.2792,-0.2814,-0.2671,0,0,0,0,0,-0.1768,-0.1773,-0.1818,-0.1841,-0.1961,-0.2062,-0.2081,-0.2192,-0.2245,-0.2295,-0.2413,-0.244,-0.2729,-0.2663,-0.2685,-0.2724,-0.2984,-0.2995,-0.3006,-0.2895,-0.2902,-0.2908,0,0,0,0,0,0,-0.1777,-0.18,-0.1819,-0.1911,-0.1941,-0.2059,-0.2106,-0.2134,-0.2244,-0.2264,-0.2412,-0.244,-0.2489,-0.2654,-0.2673,-0.271,-0.2665,-0.2989,-0.2998,-0.3007,-0.2898,-0.2903,-0.2908,0,0,0,0,0,-0.1785,-0.1804,-0.1973,-0.1912,-0.1937,-0.2082,-0.2109,-0.2134,-0.2232,-0.2331,-0.2364,-0.233,-0.2483,-0.2512,-0.2666,-0.27,-0.2652,-0.2659,-0.2995,-0.3002,-0.3009,-0.29,0,0,0,0,0,0,-0.1791,-0.1808,-0.1981,-0.1993,-0.1949,-0.2082,-0.2106,-0.2132,-0.2297,-0.2328,-0.2245,-0.2257,-0.2479,-0.2502,-0.2522,-0.2695,-0.2641,-0.2648,-0.2653,-0.3001,-0.3007,-0.3012,0,0,0,0,0,0,-0.18,-0.1816,-0.1986,-0.2027,-0.2044,-0.2081,-0.2103,-0.2162,-0.23,-0.2201,-0.2216,-0.2249,-0.2482,-0.2494,-0.2511,-0.2594,-0.2633,-0.264,-0.2645,-0.2648,-0.3006,-0.301,0,0,0,0,0,0,-0.1808,-0.1823,-0.2024,-0.2037,-0.2052,-0.2188,-0.2137,-0.2271,-0.2287,-0.2192,-0.2299,-0.2304,-0.2474,-0.2491,-0.2502,-0.2577,-0.259,-0.2633,-0.2638,-0.2641,-0.2644,0,0,0,0,0,0,0,-0.1816,-0.1693,-0.1921,-0.2045,-0.2059,-0.2106,-0.2109,-0.2111,-0.2288,-0.2293,-0.2298,-0.2302,-0.2595,-0.2602,-0.261,-0.2563,0,0,-0.2633,-0.2636,0,0,0,0,0,0,0,0,-0.169,-0.1692,-0.1922,-0.1925,-0.1928,-0.2107,-0.2108,-0.211,-0.2289,-0.2293,-0.2297,-0.23,-0.2597,-0.2603,-0.2609,0,0,0,0,0,0,0,0,0,0,0,0,0,0,0,-0.1922,-0.1925,0,-0.2107,-0.2108,-0.211,-0.229,-0.2293,-0.2296,-0.2299,-0.2598,-0.2603,-0.2608,0,0,0,0,0,0,0,0,0,0,0,0,0,0,0,0,0,0,0,0,0,0,0,0,0,0,0,0,0,0,0,0,0,0,0,0,0,0,0,0,0,0,0,0,0,0,0,0,0,0,0,0,0,0,0,0,0,0,0,0,0,0,0,0,0,0,0,0,0]}],[{"header":{"parameterUnit":"kt","parameterCategory":2,"dx":1,"dy":1,"la1":30.253999710083008,"la2":30.299108505249023,"lo1":-89.0895004272461,"lo2":-89.04439544677734,"nx":28,"ny":28,"refTime":"2022-09-20T09:00:00:Z","depth":"4","parameterNumber":3,"parameterNumberName":"V-component_of_CURRENTS"},"data":[-0.064,-0.0696,-0.0723,-0.0773,-0.0809,-0.092,-0.0952,-0.0966,-0.0821,-0.0758,-0.0512,-0.0396,0.0014,-0.0191,0.0415,0.0479,0.0568,0.0877,0.0884,0.0974,0.0964,0.0954,0.0778,0,0,0,0,0,-0.067,-0.0682,-0.0755,-0.0836,-0.0933,-0.0969,-0.1039,-0.1083,-0.1068,-0.0836,-0.0826,-0.0487,-0.0058,0.0064,0.0393,0.031,0.0671,0.0692,0.0762,0.0968,0.0956,0.0788,0,0,0,0,0,0,-0.0707,-0.0752,-0.0806,-0.0856,-0.0955,-0.1009,-0.1085,-0.1015,-0.103,-0.0941,-0.0833,-0.0566,-0.0433,-0.0033,0.0316,0.0614,0.069,0.0782,0.0781,0.0773,0.0616,0.048,0.0784,0,0,0,0,0,-0.0706,-0.0748,-0.0821,-0.0882,-0.0963,-0.1072,-0.115,-0.1144,-0.1199,-0.122,-0.0979,-0.0741,-0.0421,-0.0098,0.0262,0.0627,0.0618,0.0812,0.0808,0.0739,0.0651,0.0669,0.0638,0.0912,0.0911,0.091,0.0909,0,-0.0694,-0.0723,-0.0851,-0.0896,-0.0965,-0.1085,-0.1162,-0.1276,-0.127,-0.1242,-0.1175,-0.0962,-0.0819,-0.0199,0.0035,0.0528,0.0629,0.078,0.0705,0.0629,0.0657,0.0626,0.0598,0.09,0.09,0.0901,0.0902,0,-0.0687,-0.0729,-0.0818,-0.0942,-0.0989,-0.1078,-0.1233,-0.1275,-0.1324,-0.128,-0.1257,-0.1153,-0.0847,-0.0574,-0.012,0.0064,0.0434,0.0607,0.0359,0.0394,0.0596,0.0571,0.0884,0.0888,0.0891,0.0893,0.0895,0,-0.0689,-0.0751,-0.083,-0.0877,-0.0992,-0.1087,-0.1194,-0.1261,-0.1291,-0.1274,-0.1224,-0.1118,-0.0879,-0.0626,-0.0336,0.0057,0.0072,0.0353,0.0414,0.0206,0.0184,0.0285,0.0269,0.0398,0.0396,0.0394,0.0392,0,-0.0668,-0.077,-0.0836,-0.0877,-0.1001,-0.1081,-0.1157,-0.1212,-0.1256,-0.1217,-0.119,-0.1039,-0.0937,-0.0652,-0.0344,-0.0365,0.0066,0.006,0.0318,0.032,0.0267,0.0254,0.0389,0.0389,0.0388,0.0388,0.0387,0,-0.0691,-0.0726,-0.0808,-0.0936,-0.0961,-0.1029,-0.1121,-0.1185,-0.1183,-0.1177,-0.1098,-0.1014,-0.0866,-0.077,-0.0441,-0.0534,-0.0294,-0.0128,-0.0113,-0.0027,-0.0015,-0.0004,0.0048,0.0044,0.004,0.0037,0.0034,0,-0.067,-0.0729,-0.0775,-0.0863,-0.0891,-0.0925,-0.1017,-0.1035,-0.1029,-0.1034,-0.0939,-0.0925,-0.0852,-0.0804,-0.0661,-0.0497,-0.0324,-0.0476,-0.0096,-0.0085,-0.0065,-0.0001,-0.0311,-0.0018,-0.0011,-0.0007,-0.0003,0,-0.0643,-0.0704,-0.0716,-0.0758,-0.0786,-0.0789,-0.0868,-0.0886,-0.091,-0.0893,-0.0904,-0.0881,-0.0796,-0.0772,-0.0695,-0.0551,-0.0397,-0.0458,-0.0449,-0.0341,-0.0083,-0.0066,-0.0033,-0.0333,-0.0329,-0.0325,-0.0039,0,-0.0632,-0.0685,-0.0693,-0.073,-0.074,-0.0734,-0.0733,-0.076,-0.0758,-0.0746,-0.0751,-0.0717,-0.0692,-0.0673,-0.0648,-0.055,-0.0496,-0.047,-0.0389,-0.0393,-0.0271,-0.0244,-0.0536,-0.0534,-0.0532,-0.0531,0,0,-0.0601,-0.0642,-0.062,-0.0644,-0.0645,-0.0569,-0.0595,-0.0606,-0.0592,-0.0606,-0.0595,-0.0601,-0.0578,-0.0565,-0.0578,-0.0581,-0.0475,-0.0516,-0.0418,-0.0406,-0.0395,-0.0278,-0.0254,-0.0528,-0.0527,-0.0527,-0.0526,0,-0.0578,-0.061,-0.063,-0.0624,-0.0568,-0.0553,-0.0536,-0.0503,-0.0512,-0.0561,-0.0535,-0.0517,-0.055,-0.0519,-0.0509,-0.0563,-0.0427,-0.0547,-0.0544,-0.0409,-0.04,-0.0391,-0.0276,-0.0255,-0.0522,-0.0522,-0.0522,0,-0.0552,-0.0542,-0.0555,-0.0546,-0.0523,-0.0533,-0.0462,-0.0423,-0.045,-0.0404,-0.0475,-0.0459,-0.0436,-0.0466,-0.0464,-0.0422,-0.0352,-0.0424,-0.0432,-0.0401,-0.0255,-0.0247,-0.0239,-0.033,-0.033,-0.033,0,0,-0.0533,-0.0561,-0.0512,-0.0534,-0.0519,-0.0473,-0.0451,-0.0418,-0.0407,-0.0413,-0.0415,-0.0406,-0.0418,-0.0401,-0.0416,-0.0423,-0.0321,-0.0405,-0.0414,-0.0422,-0.0397,-0.0255,-0.0247,-0.0329,-0.0329,-0.0329,0,0,-0.0506,-0.0481,-0.0479,-0.0512,-0.0468,-0.0419,-0.0414,-0.0383,-0.0407,-0.0405,-0.0383,-0.038,-0.0406,-0.0366,-0.0364,-0.0362,-0.0318,-0.032,-0.0398,-0.0408,-0.0417,-0.0389,-0.0299,0,0,0,0,0,-0.0445,-0.0483,-0.0482,-0.0477,-0.0475,-0.0432,-0.0429,-0.0386,-0.0367,-0.0377,-0.0393,-0.0339,-0.0363,-0.0362,-0.036,-0.0356,-0.0319,-0.0321,-0.0323,-0.0427,-0.0438,-0.0448,0,0,0,0,0,0,-0.0443,-0.0445,-0.0477,-0.0436,-0.043,-0.0434,-0.0407,-0.0401,-0.0365,-0.0361,-0.0347,-0.034,-0.0331,-0.0359,-0.0358,-0.0355,-0.0299,-0.032,-0.0321,-0.0323,-0.0431,-0.044,-0.0448,0,0,0,0,0,-0.044,-0.0441,-0.0459,-0.0434,-0.043,-0.0367,-0.0408,-0.0401,-0.0398,-0.0351,-0.0345,-0.0354,-0.0333,-0.0329,-0.0358,-0.0356,-0.0299,-0.0299,-0.0321,-0.0322,-0.0323,-0.0435,0,0,0,0,0,0,-0.0438,-0.047,-0.0456,-0.045,-0.0408,-0.0366,-0.0366,-0.0402,-0.0392,-0.0382,-0.0358,-0.0354,-0.0335,-0.0331,-0.0328,-0.0359,-0.03,-0.0299,-0.0299,-0.0322,-0.0323,-0.0324,0,0,0,0,0,0,-0.0465,-0.0468,-0.0454,-0.0425,-0.0416,-0.0365,-0.0365,-0.0369,-0.0393,-0.0407,-0.0399,-0.0356,-0.0309,-0.0333,-0.0331,-0.0342,-0.03,-0.03,-0.0299,-0.0299,-0.0323,-0.0323,0,0,0,0,0,0,-0.0464,-0.0466,-0.0428,-0.0422,-0.0415,-0.0364,-0.0368,-0.0368,-0.037,-0.041,-0.0364,-0.0361,-0.031,-0.0309,-0.0333,-0.0346,-0.0343,-0.03,-0.03,-0.03,-0.0299,0,0,0,0,0,0,0,-0.0463,-0.0478,-0.0461,-0.0419,-0.0413,-0.0386,-0.0388,-0.0389,-0.037,-0.0367,-0.0365,-0.0362,-0.0301,-0.0301,-0.03,-0.0349,0,0,-0.03,-0.03,0,0,0,0,0,0,0,0,-0.0474,-0.0477,-0.046,-0.0457,-0.0454,-0.0387,-0.0388,-0.0389,-0.0369,-0.0367,-0.0365,-0.0363,-0.0301,-0.0301,-0.03,0,0,0,0,0,0,0,0,0,0,0,0,0,0,0,-0.046,-0.0457,0,-0.0387,-0.0388,-0.0389,-0.0369,-0.0367,-0.0366,-0.0364,-0.0301,-0.0301,-0.03,0,0,0,0,0,0,0,0,0,0,0,0,0,0,0,0,0,0,0,0,0,0,0,0,0,0,0,0,0,0,0,0,0,0,0,0,0,0,0,0,0,0,0,0,0,0,0,0,0,0,0,0,0,0,0,0,0,0,0,0,0,0,0,0,0,0,0,0,0]}]]]